sat.trackr.live / text

‹ back to catalog

IRIDIUM 108

NORAD 41924 · 2017-003H

PAYLOAD ACTIVE UNKNOWN

§ Identity

Operator
Country
US
Launch date
2017-01-14
Launch site
AFWTR
Launch vehicle
Mass (kg)
RCS (m²)
2.41

Purposes: comms

External: N2YO · Heavens-Above · Gunter

§ Orbital elements

Epoch: 2026-05-25T05:17:46.466016Z

Period
100.40 min
Inclination
86.3966°
Eccentricity
0.0002034
Mean motion
14.34217515 rev/d
Perigee alt
776.2 km
Apogee alt
779.1 km
Semi-major
7,155.8 km
B*
-6.1838e-6
RAAN
66.3618°
Arg perigee
85.0416°
Mean anomaly
275.1012°
Rev number
49,181

§ Raw data

IRIDIUM 1081 41924U 17003H   26145.22067669  .00000002  00000+0 -61838-5 0  99902 41924  86.3966  66.3618 0002034  85.0416 275.1012 14.34217515491817

JSON: /api/v1/satellites/41924 · /tle

For live sub-satellite position, see the globe view (requires WebGL).

§ Visibility from observer

Set your observer location to see the next 7 days of passes ≥ 10°. The values pass through the URL so the page stays shareable.

No JS? Fill the form by hand. The geolocation button needs JavaScript.